Location: Lawrenceville
(33.9572°N, 83.9896°W)
Time: 21:25:03
(UTC+00:00)

BlueWalker 3 - Visible Passes

Search period start: 28 September 2023 00:00
Search period end: 08 October 2023 00:00
Orbit: 491 x 508 km, 53.2° (Epoch: 28 September)

Date Brightness Start Highest point End Pass type
(mag) Time Alt. Az. Time Alt. Az. Time Alt. Az.
28 Sep 4.8 10:38:15 10° N 10:39:39 12° NNE 10:41:03 10° NE visible
29 Sep 4.8 10:16:39 10° N 10:18:05 12° NNE 10:19:31 10° NE visible
30 Sep 4.8 09:55:04 10° N 09:56:31 12° NNE 09:57:57 10° NE visible
01 Oct 4.8 09:33:28 10° N 09:34:55 12° NNE 09:36:24 10° NE visible
02 Oct 4.8 09:12:26 11° NNE 09:13:20 12° NNE 09:14:48 10° NE visible
02 Oct 2.1 10:48:29 10° NW 10:52:21 74° NE 10:56:12 10° SE visible
03 Oct 5.1 08:52:22 11° NE 08:52:22 11° NE 08:53:12 10° NE visible
03 Oct 2.1 10:27:02 11° NW 10:30:43 75° NE 10:34:34 10° SE visible
04 Oct 2.0 10:07:09 28° NW 10:09:06 75° NE 10:12:56 10° SE visible
05 Oct 1.9 09:47:25 76° NE 09:47:27 76° NE 09:51:18 10° SE visible
06 Oct 4.4 01:04:29 10° SSW 01:04:53 12° SSW 01:04:53 12° SSW visible
06 Oct 3.7 09:27:50 26° SE 09:27:50 26° SE 09:29:39 10° SE visible
07 Oct 2.9 00:42:49 10° SSW 00:45:16 31° SSE 00:45:16 31° SSE visible
